Weather observations for the past three days for
Colorado Air and Space Port Airport
Imperial (Metric)
Date Time (mdt) Wind (mph) Vis. (mi.) Weather Sky Cond. Temperature (ºF) Relative Humidity Wind Chill (°F) Heat Index (°F) Pressure Precipitation (in)
Air Dwpt 6 hour altimeter (in) sea level (mb) 1 hr 3 hr 6 hr
Max. Min.
01 06:35 SW 3 10.00 Fair CLR 62.2 57.2 84% 30.14 0.0
01 06:15 NW 6 10.00 Fair CLR 61.7 57.2 85% 30.14 0.0
01 05:55 W 5 10.00 Fair CLR 61.7 57.2 64.8 61.3 85% 30.13 0.0
01 05:35 SW 3 10.00 Fair CLR 61.9 57.2 85% 30.13 0.0
01 05:15 S 5 10.00 Fair CLR 62.6 57.2 83% 30.13 0.0
01 04:55 Calm 10.00 Fair CLR 62.8 56.7 81% 30.13 0.0
01 04:35 SW 7 10.00 Fair CLR 63.9 56.5 77% 30.14 0.0
01 04:15 S 6 10.00 Partly Cloudy SCT090 61.7 57.2 85% 30.15 0.0
01 03:55 S 7 10.00 Partly Cloudy SCT090 61.3 57.2 86% 30.16 0.0
01 03:35 S 8 10.00 Fair CLR 61.9 57.4 85% 30.16 0.0
01 03:15 S 9 10.00 Fair CLR 62.8 57.7 84% 30.16 0.0
01 02:55 S 5 10.00 Fair CLR 62.6 58.3 86% 30.17 0.0
01 02:35 S 6 10.00 Partly Cloudy SCT110 64.4 58.1 80% 30.18 0.0
01 02:15 SW 6 10.00 Mostly Cloudy BKN100 64.8 58.1 79% 30.18 0.0
01 01:55 SW 6 10.00 Partly Cloudy SCT100 64.4 58.3 81% 30.18 0.0
01 01:35 SW 5 10.00 Partly Cloudy SCT120 63 59 87% 30.19 0.0
01 01:15 W 6 10.00 Partly Cloudy SCT120 63.5 58.8 85% 30.2 0.0
01 00:55 W 3 10.00 Fair CLR 64 58.5 82% 30.2 0.0
01 00:35 SW 3 10.00 Fair CLR 63.7 59 85% 30.19 0.0
01 00:15 S 6 10.00 Fair CLR 62.8 59.4 89% 30.2 0.0
31 23:55 S 5 10.00 Fair CLR 63.5 59 84.7 63.5 85% 30.2 0.0
31 23:35 SW 6 10.00 Fair CLR 63.7 58.6 84% 30.2 0.0
31 23:15 SW 12 10.00 Fair CLR 63.5 59 85% 30.19 0.0
31 22:55 N 3 10.00 Fair CLR 63.5 59 85% 30.18 0.0
31 22:35 NW 5 10.00 Fair CLR 63.9 59.5 86% 30.18 0.0
31 22:15 NW 7 10.00 Partly Cloudy SCT100 64.4 59.9 85% 30.18 0.0
31 21:55 W 8 10.00 Mostly Cloudy BKN100 65.5 60.3 83% 30.19 0.0
31 21:35 NW 6 10.00 Overcast BKN100 OVC120 66.2 59.4 79% 30.2 0.0
31 21:15 W 7 10.00 Overcast SCT049 SCT070 OVC090 66.6 58.8 76% 30.22 0.0
31 13:47 SE 6 10.00 Fair CLR 82.4 37.4 20% 80 30.2 0.0
31 10:47 E 3 10.00 Fair CLR 80.6 39.2 23% 79 30.22 0.0
31 09:47 E 3 10.00 Fair CLR 80.6 41 24% 79 30.22 0.0
31 08:47 S 3 10.00 Fair CLR 77 44.6 32% 78 30.21 0.0
31 06:47 SW 8 10.00 Fair CLR 64.4 46.4 52% 30.17 0.0
31 06:35 SW 7 10.00 Fair CLR 64.9 46.8 52% 30.16 0.0
31 06:15 SW 8 10.00 Fair CLR 65.7 46.6 50% 30.16 0.0
31 05:55 SW 10 10.00 Fair CLR 65.7 46.8 68.5 63.5 51% 30.16 0.0
31 05:35 SW 8 10.00 Fair CLR 65.7 47.1 51% 30.15 0.0
31 05:15 SW 10 10.00 Fair CLR 66.2 47.3 51% 30.15 0.0
31 04:55 SW 10 10.00 Fair CLR 66.2 47.5 51% 30.15 0.0
31 04:35 SW 9 10.00 Fair CLR 64.9 48.2 55% 30.15 0.0
31 04:15 S 10 10.00 Fair CLR 67.6 47.3 48% 30.15 0.0
31 03:55 SW 12 10.00 Fair CLR 67.3 48.2 51% 30.14 0.0
31 03:35 SW 10 10.00 Fair CLR 66.2 49.3 55% 30.14 0.0
31 03:15 SW 10 10.00 Fair CLR 67.3 48.6 51% 30.14 0.0
31 02:55 SW 9 10.00 Fair CLR 66.4 49.3 54% 30.13 0.0
31 02:35 SW 10 10.00 Fair CLR 66.2 49.3 55% 30.14 0.0
31 02:15 SW 10 10.00 Fair CLR 65.8 50 57% 30.14 0.0
31 01:55 SW 12 10.00 Fair CLR 65.8 50.2 57% 30.15 0.0
31 01:35 S 10 10.00 Fair CLR 63.5 51.8 66% 30.15 0.0
31 01:15 S 9 10.00 Fair CLR 66.9 50.2 55% 30.16 0.0
31 00:55 S 8 10.00 Fair CLR 64.6 51.8 63% 30.17 0.0
31 00:35 S 7 10.00 Partly Cloudy SCT120 66.7 51.8 59% 30.17 0.0
31 00:15 SW 5 10.00 Fair CLR 68.5 51.4 55% 30.18 0.0
30 23:55 S 5 10.00 Partly Cloudy SCT090 68 54.3 74.3 66.9 62% 30.18 0.0
30 23:35 SW 6 10.00 Overcast SCT060 SCT075 OVC090 69.8 54.1 58% 30.2 0.0
30 23:15 SW 9 10.00 Overcast SCT075 OVC100 70.5 53.1 54% 30.2 0.0
30 22:55 SW 13 G 21 10.00 Mostly Cloudy BKN110 72.3 50 45% 30.2 0.0
30 22:35 SE 7 10.00 Mostly Cloudy SCT100 BKN120 69.4 54.9 60% 30.18 0.0
30 22:15 S 6 10.00 Mostly Cloudy SCT075 SCT090 BKN110 69.1 53.8 58% 30.18 0.0
30 21:55 SW 7 10.00 Fair CLR 68.9 53.1 57% 30.16 0.0
30 21:35 SW 6 10.00 Fair CLR 67.5 54.7 64% 30.18 0.0
30 21:15 SW 8 10.00 Fair CLR 67.5 54.9 64% 30.16 0.0
30 17:47 NW 10 10.00 Fair CLR 73.4 53.6 50% 30.14 0.0
30 15:47 W 22 G 29 10.00 Overcast and Breezy OVC110 75.2 42.8 31% 77 30.14 0.0
30 09:47 SW 10 10.00 Fair CLR 75.2 46.4 36% 77 30.14 0.0
30 08:47 S 9 10.00 Fair CLR 71.6 48.2 44% 30.13 0.0
30 07:47 S 9 10.00 Fair CLR 69.8 48.2 46% 30.12 0.0
30 06:47 S 7 10.00 Fair CLR 62.6 51.8 68% 30.11 0.0
30 06:35 S 7 10.00 Fair CLR 61.7 50.7 67% 30.1 0.0
30 06:15 SW 5 10.00 Fair CLR 61.3 50.5 68% 30.1 0.0
30 05:55 SW 5 10.00 Fair CLR 65.5 49.1 66.7 61.9 56% 30.1 0.0
30 05:35 SW 6 10.00 Fair CLR 64.8 49.5 58% 30.1 0.0
30 05:15 W 5 10.00 Fair CLR 64.4 49.8 59% 30.1 0.0
30 04:55 W 6 10.00 Fair CLR 61.9 50.2 66% 30.1 0.0
30 04:35 Calm 10.00 Fair CLR 65.5 50.2 58% 30.09 0.0
30 04:15 SW 6 10.00 Fair CLR 65.8 50.2 57% 30.09 0.0
30 03:55 SW 7 10.00 Fair CLR 65.8 50.2 57% 30.09 0.0
30 03:35 SW 7 10.00 Fair CLR 64.6 50.7 61% 30.1 0.0
30 03:15 SW 7 10.00 Fair CLR 65.8 50.5 58% 30.09 0.0
30 02:55 SW 7 10.00 Fair CLR 65.1 51.1 61% 30.09 0.0
30 02:35 W 7 10.00 Fair CLR 64.4 51.1 62% 30.09 0.0
30 02:15 S 7 10.00 Fair CLR 64.8 51.4 62% 30.08 0.0
30 01:55 S 9 10.00 Fair CLR 65.8 50 57% 30.09 0.0
30 01:35 S 10 10.00 Fair CLR 66.2 50.2 56% 30.09 0.0
30 01:15 SW 12 10.00 Fair CLR 66.7 50 55% 30.11 0.0
30 00:55 SW 6 10.00 Fair CLR 65.7 50 57% 30.12 0.0
30 00:35 S 8 10.00 Fair CLR 64.6 50.5 61% 30.12 0.0
30 00:15 S 8 10.00 Fair CLR 63.9 50.5 62% 30.13 0.0
29 23:55 S 8 10.00 Fair CLR 63.5 50.7 81 63 63% 30.13 0.0
29 23:35 S 7 10.00 Fair CLR 63.5 50.2 62% 30.13 0.0
29 23:15 S 8 10.00 Fair CLR 63.7 50 61% 30.14 0.0
29 22:55 S 7 10.00 Fair CLR 64 49.1 58% 30.15 0.0
29 22:35 S 3 10.00 Fair CLR 64.8 48.2 55% 30.16 0.0
29 22:15 SE 6 10.00 Fair CLR 64.6 48.2 56% 30.16 0.0
29 21:55 E 8 10.00 Fair CLR 65.3 47.5 53% 30.15 0.0
29 21:35 Calm 10.00 Fair CLR 66.2 47.3 51% 30.16 0.0
29 21:15 NE 7 10.00 Fair CLR 67.6 46.8 47% 30.16 0.0
29 12:47 Calm 10.00 Fair CLR 91.4 35.6 14% 87 30.11 0.0
29 09:47 SW 7 10.00 Fair CLR 86 39.2 19% 83 30.14 0.0
29 08:47 W 9 10.00 Fair CLR 82.4 41 23% 80 30.14 0.0
29 07:47 W 6 10.00 Fair CLR 71.6 46.4 41% 30.15 0.0
29 06:47 S 6 10.00 Fair CLR 68 46.4 46% 30.15 0.0
Date Time (mdt) Wind (mph) Vis. (mi.) Weather Sky Cond. Air Dwpt Max. Min. Relative Humidity Wind Chill (°F) Heat Index (°F) altimeter (in) sea level (mb) 1 hr 3 hr 6 hr
6 hour
Temperature (ºF) Pressure Precipitation (in)